Snowfall_Accumulation
0.0 0.0 0.0 0.0 0.0 0.0 0.0 0.0 0.0 0.0 0.0 0.0 0.0 0.0 0.0 0.0 0.0 0.0 0.0 nan nan nan nan nan nan nan nan nan nan nan nan nan nan nan nan nan nan nan
0.0 0.0 0.0 0.0 0.0 0.0 0.0 0.0 0.0 0.0 0.0 0.0 0.0 0.0 0.0 0.0 0.0 0.0 0.0 nan nan nan nan nan nan nan nan nan nan nan nan nan nan nan nan nan nan nan
0.0 0.0 0.0 0.0 0.0 0.0 0.0 0.0 0.0 0.0 0.0 0.0 0.0 0.0 0.0 0.0 0.0 0.0 0.0 0.0 0.0 nan nan nan nan nan nan nan nan nan nan nan nan nan nan nan nan nan
0.0 0.0 0.0 0.0 0.0 0.0 0.0 0.0 0.0 0.0 0.0 0.0 0.0 0.0 0.0 0.0 0.0 0.0 0.0 0.0 0.0 nan nan nan nan nan nan nan nan nan nan nan nan nan nan nan nan nan
0.0 0.0 0.0 0.0 0.0 0.0 0.0 0.0 0.0 0.0 0.0 0.0 0.0 0.0 0.0 0.0 0.0 0.0 0.0 0.0 0.0 nan nan nan nan nan nan nan nan nan nan nan nan nan nan nan nan nan
0.0 0.0 0.0 0.0 0.0 0.0 0.0 0.0 0.0 0.0 0.0 0.0 0.0 0.0 0.0 0.0 0.0 0.0 0.0 0.0 0.0 0.0 nan nan nan nan nan nan nan nan nan nan nan nan nan nan nan nan
0.0 0.0 0.0 nan nan nan 0.0 0.0 0.0 0.0 0.0 0.0 0.0 0.0 0.0 0.0 0.0 0.0 0.0 0.0 0.0 0.0 0.0 0.0 0.0 0.0 0.0 nan nan nan nan nan nan nan nan nan nan nan
0.0 0.0 0.0 0.0 0.0 nan nan nan nan 0.0 0.0 0.0 0.0 0.0 0.0 0.0 0.0 0.0 0.0 0.0 0.1 0.0 0.0 0.0 0.0 0.0 0.0 0.0 nan nan nan nan nan nan nan nan nan nan
0.0 0.0 0.0 0.0 nan 0.0 nan nan nan nan nan 0.0 0.0 0.0 0.0 0.0 0.0 0.0 0.0 0.1 0.2 0.3 0.1 0.4 0.1 0.6 0.2 0.0 nan nan nan nan nan nan nan nan nan nan
0.0 0.0 0.0 0.0 0.0 0.0 0.0 0.0 0.1 0.1 0.1 0.1 0.6 1.7 1.7 0.5 0.0 0.0 0.1 0.3 0.7 1.9 0.6 1.9 2.1 3.6 0.8 0.5 nan nan nan nan nan nan nan nan nan nan
0.0 0.0 0.0 0.0 nan nan 0.0 0.6 2.9 6.6 nan nan nan nan nan nan nan 0.4 1.0 0.9 3.0 5.4 4.8 3.3 4.4 4.1 3.5 3.2 2.2 nan nan nan nan nan nan nan nan nan
0.6 0.5 nan 0.1 nan nan 0.1 0.2 1.9 7.9 6.4 6.8 6.6 7.0 nan nan nan 1.2 1.0 2.6 4.3 5.0 3.5 3.8 2.9 3.4 4.5 2.6 2.6 2.2 1.8 nan nan nan nan nan nan 0.2
3.1 4.3 3.9 nan nan nan nan 3.2 8.6 11.5 8.8 8.3 7.1 6.9 5.9 4.6 4.1 3.7 2.9 3.5 5.1 6.3 4.7 4.1 3.6 3.0 3.2 2.8 2.2 2.3 1.9 1.4 0.7 0.3 nan nan nan 0.0
5.1 4.4 5.5 nan nan nan 3.3 nan nan 3.6 9.2 9.6 8.5 8.4 6.8 5.4 4.7 4.2 3.3 2.6 2.4 2.5 1.8 1.6 5.0 2.9 3.3 3.2 2.6 1.0 0.6 0.5 0.4 0.2 0.3 nan nan nan
4.7 9.1 nan nan nan 1.6 nan nan 3.3 6.5 7.9 9.3 9.2 8.8 6.4 4.1 1.5 1.6 0.8 0.6 0.5 0.5 0.4 0.5 1.6 0.7 1.2 1.3 0.9 0.4 0.3 0.1 0.3 0.2 0.3 0.5 0.5 0.6
2.6 6.2 3.8 4.8 3.4 4.7 5.5 6.5 6.5 6.2 6.5 7.1 6.1 4.3 3.1 2.6 2.4 1.6 1.7 1.3 1.3 0.7 0.0 0.0 0.1 0.1 1.0 0.4 0.4 0.5 0.3 0.5 0.2 0.2 0.4 0.6 0.6 1.0
5.2 7.2 6.0 4.9 4.8 4.7 4.6 4.5 3.9 3.6 4.3 4.7 4.2 3.2 2.4 1.8 1.5 0.9 1.0 1.1 2.1 1.4 1.5 0.3 0.0 0.0 0.2 0.0 1.3 0.3 0.4 0.4 0.2 0.4 0.9 1.3 1.5 1.3
4.8 6.9 10.9 10.7 7.4 5.5 5.8 5.0 4.2 3.0 2.8 2.6 3.3 2.2 2.0 2.1 1.3 1.1 1.0 1.2 1.5 0.9 0.7 0.6 1.3 1.2 0.7 0.5 0.4 0.5 0.3 0.4 0.4 0.3 0.6 1.7 1.1 1.1
8.4 8.6 12.1 11.9 7.0 4.0 4.0 3.9 4.8 4.2 1.6 2.5 2.9 3.5 3.6 2.8 3.3 2.5 2.8 2.4 2.3 1.2 0.9 0.8 1.3 3.4 6.7 9.1 0.4 nan 1.5 0.7 1.1 1.2 0.5 1.2 2.5 1.8
4.6 6.6 9.2 7.5 4.7 4.0 3.6 3.5 3.3 4.1 4.2 3.4 5.3 7.4 8.9 5.7 5.0 3.4 2.8 4.7 2.1 0.9 0.7 0.4 0.8 1.2 4.8 10.2 11.0 3.2 nan 2.4 2.2 2.8 2.1 0.7 0.7 nan
3.1 2.8 4.9 4.1 3.2 2.0 6.8 8.0 10.5 9.2 9.4 12.4 7.0 7.4 16.2 4.1 4.8 3.7 4.0 3.1 2.8 1.2 1.2 0.8 0.5 0.2 1.3 2.6 16.7 4.7 2.6 nan 0.5 1.2 1.5 2.4 2.3 1.4
5.0 3.1 3.0 3.4 5.1 4.7 9.6 15.5 13.0 12.7 9.3 6.6 13.4 19.3 16.7 7.9 7.6 6.2 7.4 7.3 2.3 2.7 1.4 0.6 0.3 0.6 1.2 2.6 3.2 7.4 2.1 2.0 nan nan nan nan 4.6 7.6
8.5 4.3 5.9 7.6 9.1 9.5 4.5 9.2 4.0 8.1 7.4 7.5 6.6 7.0 31.4 9.1 5.3 5.6 6.2 4.4 2.8 2.7 1.8 2.1 1.1 0.9 1.1 1.5 2.7 3.8 2.0 4.1 1.6 1.8 2.3 nan nan nan
Water_Equivalent
0.00 0.00 0.00 0.00 0.00 0.00 0.00 0.00 0.00 0.00 0.00 0.00 0.00 0.00 0.00 0.00 0.00 0.00 0.00 nan nan nan nan nan nan nan nan nan nan nan nan nan nan nan nan nan nan nan
0.00 0.00 0.00 0.00 0.00 0.00 0.00 0.00 0.00 0.00 0.00 0.00 0.00 0.00 0.00 0.00 0.00 0.00 0.00 nan nan nan nan nan nan nan nan nan nan nan nan nan nan nan nan nan nan nan
0.00 0.00 0.00 0.00 0.00 0.00 0.00 0.00 0.00 0.00 0.00 0.00 0.00 0.00 0.00 0.00 0.00 0.00 0.00 0.00 0.00 nan nan nan nan nan nan nan nan nan nan nan nan nan nan nan nan nan
0.00 0.00 0.00 0.00 0.00 0.00 0.00 0.00 0.00 0.00 0.00 0.00 0.00 0.00 0.00 0.00 0.00 0.00 0.00 0.00 0.00 nan nan nan nan nan nan nan nan nan nan nan nan nan nan nan nan nan
0.00 0.00 0.00 0.00 0.00 0.00 0.00 0.00 0.00 0.00 0.00 0.00 0.00 0.00 0.00 0.00 0.00 0.00 0.00 0.00 0.00 nan nan nan nan nan nan nan nan nan nan nan nan nan nan nan nan nan
0.00 0.00 0.00 0.00 0.00 0.00 0.00 0.00 0.00 0.00 0.00 0.00 0.00 0.00 0.00 0.00 0.00 0.00 0.00 0.00 0.00 0.00 nan nan nan nan nan nan nan nan nan nan nan nan nan nan nan nan
0.00 0.00 0.00 nan nan nan 0.00 0.00 0.00 0.00 0.00 0.00 0.00 0.00 0.00 0.00 0.00 0.00 0.00 0.00 0.00 0.00 0.00 0.00 0.00 0.00 0.00 nan nan nan nan nan nan nan nan nan nan nan
0.00 0.00 0.00 0.00 0.00 nan nan nan nan 0.00 0.00 0.00 0.00 0.00 0.00 0.00 0.00 0.00 0.00 0.00 0.05 0.00 0.00 0.00 0.00 0.00 0.00 0.00 nan nan nan nan nan nan nan nan nan nan
0.00 0.00 0.00 0.00 nan 0.00 nan nan nan nan nan 0.00 0.00 0.00 0.00 0.00 0.00 0.00 0.00 0.02 0.09 0.10 0.04 0.17 0.02 0.18 0.05 0.00 nan nan nan nan nan nan nan nan nan nan
0.00 0.00 0.00 0.00 0.00 0.00 0.00 0.00 0.01 0.02 0.03 0.02 0.13 0.37 0.41 0.11 0.01 0.01 0.03 0.10 0.24 0.52 0.16 0.48 0.56 0.66 0.24 0.14 nan nan nan nan nan nan nan nan nan nan
0.00 0.00 0.00 0.00 nan nan 0.00 0.12 0.57 1.24 nan nan nan nan nan nan nan 0.14 0.35 0.29 0.76 0.95 0.88 0.79 0.94 0.96 0.93 0.86 0.62 nan nan nan nan nan nan nan nan nan
0.13 0.12 nan 0.02 nan nan 0.02 0.05 0.37 1.29 1.11 1.14 1.10 1.19 nan nan nan 0.33 0.31 0.71 0.87 0.93 0.72 0.81 0.67 0.77 0.86 0.55 0.54 0.44 0.35 nan nan nan nan nan nan 0.03
0.58 0.75 0.84 nan nan nan nan 0.60 1.42 1.96 1.52 1.45 1.26 1.28 1.15 0.93 0.85 0.80 0.64 0.78 1.00 1.05 0.86 0.87 0.70 0.62 0.65 0.53 0.41 0.39 0.33 0.24 0.14 0.06 nan nan nan 0.00
0.81 0.80 1.09 nan nan nan 0.80 nan nan 1.00 2.04 2.05 1.79 1.61 1.26 1.03 0.88 0.78 0.63 0.53 0.50 0.45 0.35 0.34 0.90 0.49 0.56 0.52 0.41 0.16 0.12 0.11 0.08 0.04 0.09 nan nan nan
0.95 1.66 nan nan nan 0.52 nan nan 1.10 1.62 1.86 2.06 1.85 1.70 1.26 0.78 0.31 0.31 0.16 0.11 0.10 0.09 0.07 0.07 0.29 0.11 0.22 0.24 0.17 0.10 0.08 0.03 0.08 0.05 0.10 0.15 0.15 0.19
0.75 1.34 1.27 1.17 1.13 1.30 1.25 1.22 1.21 1.20 1.22 1.23 0.97 0.70 0.53 0.46 0.43 0.29 0.32 0.25 0.26 0.15 0.00 0.01 0.01 0.02 0.23 0.10 0.09 0.12 0.08 0.12 0.05 0.05 0.12 0.18 0.18 0.31
1.27 1.44 1.13 0.85 0.77 0.73 0.72 0.71 0.62 0.57 0.69 0.75 0.66 0.48 0.38 0.29 0.27 0.20 0.22 0.25 0.41 0.30 0.33 0.09 0.00 0.00 0.05 0.01 0.31 0.07 0.09 0.10 0.07 0.11 0.22 0.33 0.41 0.37
0.91 1.15 1.67 1.65 1.09 0.77 0.83 0.72 0.62 0.53 0.45 0.47 0.59 0.39 0.35 0.39 0.25 0.25 0.22 0.26 0.31 0.19 0.16 0.12 0.27 0.25 0.16 0.11 0.11 0.12 0.07 0.10 0.10 0.08 0.15 0.40 0.26 0.27
1.29 1.14 1.67 1.74 1.03 0.53 0.55 0.54 0.71 0.64 0.22 0.46 0.52 0.60 0.61 0.47 0.59 0.46 0.51 0.44 0.42 0.21 0.14 0.16 0.25 0.66 0.99 1.29 0.11 nan 0.33 0.17 0.27 0.30 0.15 0.28 0.53 0.42
0.63 0.88 1.17 1.02 0.59 0.47 0.44 0.45 0.46 0.62 0.66 0.56 0.82 1.09 1.29 0.88 0.84 0.57 0.50 0.71 0.40 0.19 0.15 0.09 0.16 0.23 0.63 1.39 1.82 0.72 nan 0.57 0.50 0.55 0.42 0.18 0.17 nan
0.45 0.40 0.70 0.59 0.47 0.32 1.02 1.20 1.59 1.41 1.44 1.87 1.07 1.14 2.56 0.68 0.77 0.60 0.65 0.63 0.59 0.22 0.22 0.16 0.11 0.06 0.25 0.53 2.87 1.00 0.65 nan 0.12 0.25 0.31 0.45 0.45 0.29
0.65 0.42 0.42 0.45 0.69 0.66 1.44 2.32 2.02 1.98 1.37 0.99 1.96 3.01 2.72 1.16 1.06 0.89 1.09 1.08 0.38 0.43 0.23 0.12 0.07 0.11 0.23 0.41 0.54 1.46 0.46 0.48 nan nan nan nan 0.69 1.05
1.15 0.54 0.79 1.03 1.28 1.34 0.60 1.27 0.56 1.19 1.04 1.06 0.95 1.00 5.19 1.23 0.77 0.82 0.96 0.69 0.42 0.42 0.29 0.31 0.18 0.15 0.20 0.25 0.43 0.65 0.33 0.81 0.33 0.36 0.53 nan nan nan
SL_Ratio
nan nan nan nan nan nan nan nan nan nan nan nan nan nan nan nan nan nan nan nan nan nan nan nan nan nan nan nan nan nan nan nan nan nan nan nan nan nan
nan nan nan nan nan nan nan nan nan nan nan nan nan nan nan nan nan nan nan nan nan nan nan nan nan nan nan nan nan nan nan nan nan nan nan nan nan nan
nan nan nan nan nan nan nan nan nan nan nan nan nan nan nan nan nan nan nan nan nan nan nan nan nan nan nan nan nan nan nan nan nan nan nan nan nan nan
nan nan nan nan nan nan nan nan nan nan nan nan nan nan nan nan nan nan nan nan nan nan nan nan nan nan nan nan nan nan nan nan nan nan nan nan nan nan
nan nan nan nan nan nan nan nan nan nan nan nan nan nan nan nan nan nan nan nan nan nan nan nan nan nan nan nan nan nan nan nan nan nan nan nan nan nan
nan nan nan nan nan nan nan nan nan nan nan nan nan nan nan nan nan nan nan nan nan nan nan nan nan nan nan nan nan nan nan nan nan nan nan nan nan nan
nan nan nan nan nan nan nan nan nan nan nan nan nan nan nan nan nan nan nan nan nan nan nan nan nan nan nan nan nan nan nan nan nan nan nan nan nan nan
nan nan nan nan nan nan nan nan nan nan nan nan nan nan nan nan nan nan nan nan 2.5 nan nan nan nan nan nan nan nan nan nan nan nan nan nan nan nan nan
nan nan nan nan nan nan nan nan nan nan nan nan nan nan nan nan nan nan 3.3 2.5 2.5 3.3 2.5 2.6 2.5 3.2 3.4 4.4 nan nan nan nan nan nan nan nan nan nan
nan nan nan nan nan nan nan nan 5.3 4.1 4.0 4.3 4.3 4.7 4.3 4.2 2.5 2.4 2.6 2.5 2.7 3.7 3.6 3.9 3.7 5.4 3.5 3.4 nan nan nan nan nan nan nan nan nan nan
5.0 nan nan nan nan nan 2.3 4.9 5.0 5.3 nan nan nan nan nan nan nan 2.7 3.0 3.1 4.0 5.6 5.4 4.2 4.7 4.3 3.8 3.7 3.5 nan nan nan nan nan nan nan nan nan
4.7 4.4 nan 3.3 nan nan 2.6 3.5 5.1 6.2 5.8 6.0 6.0 5.9 nan nan nan 3.7 3.3 3.7 4.9 5.4 4.9 4.7 4.3 4.5 5.2 4.6 4.7 4.9 5.2 nan nan nan nan nan nan 5.2
5.5 5.8 4.6 nan nan nan nan 5.3 6.1 5.9 5.8 5.7 5.7 5.4 5.1 5.0 4.8 4.6 4.6 4.5 5.2 6.0 5.4 4.7 5.1 4.8 5.0 5.4 5.4 5.8 5.8 5.9 5.3 5.5 nan nan nan nan
6.2 5.5 5.0 nan nan nan 4.1 nan nan 3.6 4.5 4.7 4.8 5.2 5.4 5.2 5.4 5.4 5.3 4.9 4.9 5.5 5.1 4.8 5.6 5.9 6.0 6.2 6.2 5.9 5.2 4.9 4.5 4.9 3.8 nan nan nan
4.9 5.5 nan nan nan 3.0 nan nan 3.0 4.0 4.2 4.5 4.9 5.2 5.1 5.2 5.0 5.1 5.2 5.1 5.2 5.6 5.9 6.5 5.5 6.8 5.4 5.5 5.5 4.3 3.7 3.5 3.5 3.4 3.3 3.4 3.5 3.3
3.5 4.6 3.0 4.2 3.0 3.6 4.4 5.3 5.4 5.2 5.4 5.8 6.3 6.2 5.9 5.6 5.6 5.5 5.3 5.1 5.0 5.0 6.4 5.2 4.5 4.9 4.5 4.1 4.2 4.1 3.6 4.1 3.3 3.4 3.2 3.5 3.5 3.4
4.1 5.0 5.4 5.8 6.2 6.5 6.4 6.3 6.3 6.3 6.3 6.3 6.4 6.6 6.4 6.0 5.5 4.6 4.6 4.7 5.0 4.8 4.4 3.8 6.0 6.3 3.7 3.9 4.1 3.8 4.0 4.2 3.7 3.6 4.3 4.0 3.6 3.6
5.3 6.0 6.5 6.5 6.8 7.1 6.9 7.0 6.8 5.7 6.3 5.6 5.6 5.6 5.7 5.4 5.0 4.5 4.4 4.6 5.0 4.6 4.7 4.5 4.8 4.8 4.5 4.3 4.2 4.2 4.2 4.2 4.2 3.5 3.7 4.2 4.2 3.8
6.5 7.6 7.3 6.8 6.8 7.6 7.3 7.2 6.8 6.5 7.2 5.5 5.5 5.8 5.8 5.9 5.6 5.4 5.4 5.4 5.5 5.6 6.0 5.0 5.0 5.1 6.7 7.0 3.7 nan 4.6 4.1 4.0 3.9 3.6 4.3 4.8 4.3
7.4 7.5 7.9 7.3 8.0 8.4 8.2 7.8 7.2 6.6 6.4 6.2 6.5 6.8 6.9 6.5 5.9 6.0 5.6 6.6 5.4 4.8 4.6 4.3 4.7 5.3 7.6 7.4 6.1 4.4 nan 4.2 4.4 5.0 5.0 3.9 3.8 nan
6.9 7.1 6.9 6.9 6.8 6.1 6.7 6.6 6.6 6.6 6.5 6.6 6.6 6.5 6.4 6.1 6.1 6.1 6.2 4.8 4.7 5.7 5.6 5.0 4.3 3.0 5.3 5.0 5.8 4.7 4.0 nan 4.2 4.8 4.9 5.4 5.2 4.9
7.6 7.3 7.1 7.6 7.3 7.2 6.7 6.7 6.5 6.4 6.8 6.7 6.8 6.4 6.2 6.8 7.2 7.0 6.7 6.8 6.2 6.3 6.3 4.9 4.4 5.0 5.3 6.3 6.1 5.1 4.5 4.2 nan nan nan nan 6.6 7.3
7.4 7.9 7.6 7.3 7.1 7.1 7.5 7.2 7.1 6.8 7.1 7.1 7.0 7.0 6.0 7.4 6.9 6.8 6.4 6.5 6.6 6.4 6.3 6.8 6.2 5.9 5.4 5.9 6.3 5.8 6.0 5.0 4.8 5.0 4.4 nan nan nan